Regional Weather Roundup
Issued by NWS San Diego, CA

Home | Current Version | Previous Version | Text Only | Print | Product List | Glossary On
Versions: 1 2 3 4 5 6 7 8 9 10 11 12 13 14 15 16 17 18 19 20 21 22 23 24 25 26 27 28 29 30 31 32 33 34 35 36 37 38 39 40 41 42 43 44 45 46 47 48 49 50
000
ASUS46 KSGX 171410
RWRSGX

SAN DIEGO HOURLY WEATHER ROUNDUP
NATIONAL WEATHER SERVICE SAN DIEGO CA
700 AM PDT THU APR 17 2014

NOTE: "FAIR" INDICATES FEW OR NO CLOUDS BELOW 12,000 FEET WITH NO
SIGNIFICANT WEATHER AND/OR OBSTRUCTIONS TO VISIBILITY.

CAZ042-043-060-061-PZZ750-775-171500-

GREATER SAN DIEGO AREA

CITY           SKY/WX    TMP DP  RH WIND       PRES   REMARKS
LINDBERGH FLD  CLOUDY    61  52  72 VRB6      29.90R
NATIONAL CITY    N/A     60  54  80 E3        29.90R
CHULA VISTA      N/A     59  55  85 CALM      29.83R
IMPERIAL BEACH CLOUDY    59  53  80 SE5       29.90R
BROWN FIELD    CLOUDY    57  51  80 NE3       29.89R
MIRAMAR MCAS   CLOUDY    58  51  78 SE6       29.89R
MONTGOMERY FLD CLOUDY    58  53  84 SE3       29.89R

$$

NORTH SAN DIEGO COUNTY

CITY           SKY/WX    TMP DP  RH WIND       PRES   REMARKS
CAMP PENDLETON CLOUDY    59  52  77 NE6       29.89R
RED BEACH      CLOUDY    60  53  77 E7        29.89  HAZE
OCEANSIDE AP   CLOUDY    59  53  80 E7        29.88R
CARLSBAD       CLOUDY    59  52  77 E3        29.88R
DEL MAR          N/A     58  54  85 CALM      29.90R
LA JOLLA SCRIP   N/A     58  55  88 S2        29.87R
FALLBROOK        N/A     55  55 100 CALM      29.89R
ESCONDIDO        N/A     56  53  88 E2        29.91R
SAN MARCOS       N/A     56  52  85 CALM      29.88R
POWAY            N/A     57  53  85 CALM      29.91R
R. PENASQUITOS   N/A     58  53  84 CALM      29.90R

$$

EAST SAN DIEGO COUNTY

CITY           SKY/WX    TMP DP  RH WIND       PRES   REMARKS
RAMONA         CLOUDY    50  50 100 CALM      29.90R FOG
SANTEE LAKES     N/A     58  53  86 CALM      29.91R
GILLESPIE FLD  CLOUDY    57  52  82 MISG      29.91R HAZE
LA MESA          N/A     57  54  89 CALM      29.84
JAMUL            N/A     52  51  95 CALM      29.88R
DESCANSO N       N/A     47  36  65 CALM      29.75R
MT. LAGUNA OBS   N/A     57  24  28 E3        29.59
CAMPO            N/A     43  36  76 E7        29.86R

$$

ORANGE COUNTY AND THE LOS ANGELES BASIN

CITY           SKY/WX    TMP DP  RH WIND       PRES   REMARKS
JOHN WAYNE AP  CLOUDY    60  53  77 E7        29.88R
LAGUNA BEACH     N/A     59  55  86 CALM      29.86R
LAKE FOREST FR   N/A     54  49  83 E1        29.78R
SANTA ANA        N/A     60  55  83 CALM      29.84R
HUNTINGTON BCH   N/A     59  55  85 E2        29.88R
LOS ALAMITOS   CLOUDY    59  54  82 SE5       29.88R
FULLERTON      CLOUDY    60  53  77 CALM      29.87R
LONG BEACH     CLOUDY    60  51  72 SE6       29.88R
L.A. AP        CLOUDY    61  52  72 E6        29.87S
L.A. DOWNTOWN  CLOUDY    60  52  74 CALM      29.87R

$$

THE INLAND EMPIRE

CITY           SKY/WX    TMP DP  RH WIND       PRES   REMARKS
CORONA         CLOUDY    55  52  90 CALM      29.90R
CHINO          CLOUDY    56  54  93 SW5       29.90R FOG
ONTARIO        CLOUDY    56  53  90 NW3       29.88R FOG
SAN BERNARDINO PTCLDY    54  48  82 CALM      29.89  FOG
RIVERSIDE AP   CLOUDY    55  52  89 SW5       29.89R FOG
RIV CYN CREST    N/A     55  55 100 W1        29.87R
MORENO VALLEY    N/A     51  50  96 CALM      28.01R
MARCH ARB      FOG       52  51  96 W6        29.89R VSB 3/4
HORSETHIEF CYN   N/A     52  46  80 CALM      29.89R
PERRIS           N/A     52  50  93 W2          N/A
MENIFEE          N/A     52  51  97 CALM      29.95R
HEMET EAST       N/A     50  40  67 CALM      29.86R
TEMECULA         N/A     53  52  97 S2        29.87R

$$

SAN BERNARDINO AND RIVERSIDE COUNTY MOUNTAINS

CITY           SKY/WX    TMP DP  RH WIND       PRES   REMARKS
BIG BEAR AP    CLEAR     34  25  69 CALM      30.08R
BIG BEAR SHEA    N/A     29  16  58 CALM      30.00R
ANGELUS OAKS     N/A     50  28  42 MISG      29.76R
PINE COVE        N/A     57  24  28 CALM      29.81R

$$

SOUTHERN DESERT INCLUDING THE COACHELLA VALLEY

CITY           SKY/WX    TMP DP  RH WIND       PRES   REMARKS
PALM SPRINGS   CLEAR     67  43  41 NW5       29.84R
THOUSAND PALMS   N/A     64  44  48 CALM      29.80R
PALM DESERT      N/A     63  50  61 CALM      30.09S
THERMAL        CLEAR     56  42  59 CALM      29.80R
BLYTHE         SUNNY     61  27  27 N5        29.82R
IMPERIAL AP    CLEAR     59  48  67 E6        29.80R
EL CENTRO NAS  PTCLDY    57  46  66 CALM      29.81R
YUMA AZ        MOSUNNY   67  44  43 S5        29.83R
MEXICALI       CLEAR     61  48  63 E7        29.81

$$

UPPER DESERT

CITY           SKY/WX    TMP DP  RH WIND       PRES   REMARKS
VICTORVILLE AP CLEAR     54  37  54 S6        29.88R
HESPERIA         N/A     53  38  57 W5        29.90R
PALMDALE       PTCLDY    57  34  41 S8        29.87R
LANCASTER      CLEAR     50  33  52 NW3       29.86R
EDWARDS AFB    MOCLDY    51  25  35 VRB1      29.86R
DAGGETT        CLEAR     63  29  27 SW7       29.85R
29 PALMS N     CLEAR     60  31  33 CALM      29.92R
NEEDLES        SUNNY     70  22  16 S3        29.83R

$$

REGIONAL REPORTS

CITY           SKY/WX    TMP DP  RH WIND       PRES   REMARKS
SANTA BARBARA  CLOUDY    58  53  84 E8        29.85F HAZE
SANDBERG       PTCLDY    60  30  32 W10       29.94R
MT. WILSON       N/A     55  21  26 S5          N/A
LAS VEGAS NV   SUNNY     67  25  20 SW5       29.85R
PHOENIX AZ     SUNNY     67  26  21 E3        29.88R
TIJUANA        CLOUDY    57  50  77 CALM      29.91R

$$

OFFSHORE ISLANDS

CITY           SKY/WX    TMP DP  RH WIND       PRES   REMARKS
CATALINA ARPT  CLOUDY    52  50  93 SE6       29.88R FOG
SAN NICOLAS IS CLOUDY    55  52  89 CALM      29.84R FOG

$$

MARINE AND OFFSHORE BUOY REPORTS

STATION/POSITION SKY/WX   TEMP    WIND        PRES    SWELL
                          AIR SEA DIR/SP/G            HT/PER/DIR
                          (F)     (DEG/KT/KT) (MB)    (FT/S/D)
S CLEMENTE BASIN           58 63  210/  4/  6 1011.7R   5/250/13
SAN NICOLAS IS.               59                N/A     5/310/11
SO. S. ROSA ISLA           57 58   70/  6/  8 1011.2R   7/11
W. S. BARBARA CH           55 54  130/  4/  8 1010.9R   8/310/10
S. MONICA BASIN            58 60  110/ 10/ 12 1010.8R   3/270/ 6
S PEDRO CHANNEL               59                N/A     2/270/11
DANA POINT                    60                N/A     2/200/13
CMP PENDLETON NS              60                N/A     2/220/14
OCEANSIDE OFFSHR              60                N/A     2/270/11
TORREY PINES OTR              61                N/A     2/220/13
LA JOLLA 1                 60 60  160/  7/  8 1012.0R
MISSION BAY BUOY              62                N/A     2/290/12
SAN DIEGO BAY                 64              1012.3R
POINT LOMA SOUTH              63                N/A     2/230/13

$$




USA.gov is the U.S. government's official web portal to all federal, state and local government web resources and services.